This demonstration page uses our WeatherBlox Daily Observations layout. Learn more.

Left ArrowRight Arrow

34.74481, -87.66753

Hourly Observations for January 6, 2022

Temp ( °F °C ) Dew Point ( °F °C ) Humidity (%) Winds ( mph kmh ) Pressure ( in mb ) Visibility ( mi km ) Precip ( " mm )
12:53 am 00:53 Clear 40 4.4 29 -1.7 65 65 NNE 7 11 30.03 1017 10 16 0.00 0.00
1:53 am 01:53 Partly Cloudy 40 4.4 26 -3.3 58 58 ENE 6 9 30.01 1016 10 16 0.00 0.00
2:53 am 02:53 Mostly Cloudy 38 3.3 30 -1.1 73 73 Calm 30.02 1017 10 16 0.00 0.00
3:53 am 03:53 Cloudy 41 5 27 -2.8 57 57 ENE 6 9 29.99 1016 10 16 0.00 0.00
4:53 am 04:53 Cloudy 41 5 27 -2.8 57 57 E 12 19 29.96 1014 10 16 0.00 0.00
5:53 am 05:53 Cloudy with Light Rain 40 4.4 26 -3.3 58 58 E 9 15 29.94 1014 10 16 0.00 0.00
6:11 am 06:11 Cloudy with Light Rain 39 3.9 29 -1.7 67 67 ENE 6 9 29.98 1015 9 14 0.01 0.25
6:29 am 06:29 Cloudy with Light Rain 38 3.3 29 -1.7 70 70 NNE 7 11 29.99 1016 6 10 0.04 1.02
6:53 am 06:53 Cloudy with Light Rain 37 2.8 31 -0.6 79 79 N 7 11 29.98 1015 9 14 0.05 1.27
7:04 am 07:04 Cloudy with Rain 37 2.8 31 -0.6 79 79 N 7 11 30.01 1016 8 13 0.01 0.25
7:48 am 07:48 Cloudy with Rain 36 2 30 -1 81 81 NNE 9 15 30.01 1016 5 8 0.11 2.79
7:53 am 07:53 Cloudy with Rain 35 1.7 31 -0.6 85 85 NNE 9 15 29.98 1015 5 8 0.12 3.05
8:53 am 08:53 Cloudy with Rain 35 1.7 31 -0.6 85 85 NE 13 20 29.95 1014 3 5 0.13 3.30
9:02 am 09:02 Cloudy with Rain 35 1.7 31 -0.6 85 85 NE 12 19 29.98 1015 3 4 0.03 0.76
9:14 am 09:14 Cloudy with Light Rain 35 1.7 31 -0.6 85 85 NE 13 20 29.98 1015 4 6 0.04 1.02
9:53 am 09:53 Cloudy with Light Rain 36 2.2 33 0.6 89 89 N 8 13 29.98 1015 4 6 0.06 1.52
10:01 am 10:01 Cloudy with Mist and Fog 36 2.2 32 0 86 86 N 9 15 29.99 1016 5 8 0.00 0.00
10:13 am 10:13 Cloudy with Light Rain 36 2.2 33 0.6 89 89 undefined N/A 29.99 1016 2 3 0.00 0.00
10:43 am 10:43 Cloudy with Mist and Fog 36 2.2 33 0.6 89 89 NNE 9 15 29.98 1015 4 6 0.00 0.00
10:53 am 10:53 Cloudy 36 2.2 33 0.6 89 89 N 8 13 29.97 1015 7 11 0.00 0.00
11:53 am 11:53 Cloudy with Light Rain 34 1.1 31 -0.6 89 89 N 9 15 29.97 1015 4 6 0.01 0.25
12:46 pm 12:46 Cloudy with Mist and Fog 34 1.1 31 -0.6 89 89 N 13 20 30.00 1016 3 4 0.00 0.00
12:53 pm 12:53 Cloudy with Mist and Fog 34 1.1 31 -0.6 89 89 N 13 20 29.98 1015 3 5 0.00 0.00
1:53 pm 13:53 Cloudy 34 1.1 30 -1.1 85 85 N 8 13 30.00 1016 9 14 0.00 0.00
2:44 pm 14:44 Cloudy 34 1.1 30 -1.1 85 85 N 8 13 30.04 1017 10 16 0.00 0.00
2:53 pm 14:53 Cloudy 35 1.7 30 -1.1 82 82 NNW 9 15 30.02 1017 10 16 0.00 0.00
3:53 pm 15:53 Cloudy 34 1.1 29 -1.7 82 82 NNW 9 15 30.03 1017 10 16 0.00 0.00
4:53 pm 16:53 Cloudy 32 0 28 -2.2 85 85 NNW 10 17 30.11 1020 10 16 0.00 0.00
5:53 pm 17:53 Cloudy 30 -1.1 26 -3.3 85 85 NNW 14 22 30.14 1021 10 16 0.00 0.00
6:53 pm 18:53 Cloudy 30 -1.1 24 -4.4 79 79 NNW 13 20 30.16 1022 10 16 0.00 0.00
7:46 pm 19:46 Cloudy 29 -1.7 23 -5 78 78 N 8 13 30.22 1023 10 16 0.00 0.00
7:53 pm 19:53 Cloudy 29 -1.7 23 -5 78 78 N 7 11 30.20 1023 10 16 0.00 0.00
8:53 pm 20:53 Cloudy 28 -2.2 22 -5.6 78 78 NNW 6 9 30.21 1023 10 16 0.00 0.00
9:53 pm 21:53 Cloudy 27 -2.8 21 -6.1 78 78 NNW 6 9 30.23 1024 10 16 0.00 0.00
10:04 pm 22:04 Cloudy 27 -2.8 20 -6.7 75 75 NNW 9 15 30.25 1024 10 16 0.00 0.00
10:53 pm 22:53 Partly Cloudy 25 -3.9 18 -7.8 75 75 N 9 15 30.22 1023 10 16 0.00 0.00
11:15 pm 23:15 Mostly Cloudy 26 -3.3 19 -7.2 75 75 N 7 11 30.25 1024 10 16 0.00 0.00
11:53 pm 23:53 Cloudy 25 -3.9 18 -7.8 75 75 N 8 13 30.23 1024 10 16 0.00 0.00

Powered by AerisWeather